Сары-Таш

Киргизия     39°43′29″N   73°15′09″E
В апреле 2022 года жителям России запретили посещать сайт meteo.paraplan.net по решению Генеральной прокуратуры. Аудитория сайта уменьшилась в 10 раз. Владельцы сайта не видят смысла в поддержке погодного сервера в таких условиях. Сайт будет закрыт в октябре.
темп.,
°C
ветер,
м/с
пор.,
м/с
влажн.,
%
обл.,
%
осадки,
мм/ч
давл.,
гПа
погр.,
м
4 октября, вт
вт400:00−1ююз119993 3.8 102369
03:00−1юз229295 0.2 1022133
06:00−6юз22928 0.3 102712
09:00−3юз238616 0.0 1027165
12:00+1юз23754 0.0 1025534
15:00+4ююв02572 0.1 1022521
18:00+2всв126615 0.3 102333
21:00−3ссз12733 0.0 102711
5 октября, ср
ср500:00−4ссз11793 0.0 102712
03:00−4з11813 0.0 102710
06:00−5зюз11732 0.0 102710
09:00−1юз22510 0.0 1026173
12:00+3юз22410 0.0 1023622
15:00+5ссв12391 0.1 10201360
18:00+2ссв34614 0.3 1022205
21:00−2ссв22741 0.0 102533
6 октября, чт
чт600:00−2ссв227629 0.1 102519
03:00−2св118080 0.3 102414
06:00−3юв118821 0.3 102512
09:00−1вюв22695 0.0 1025346
12:00+3в33485 0.0 10221127
15:00+4в334266 0.1 10201658
18:00+2вюв345259 0.2 1022505
21:00−1вюв3369100 0.0 102686
7 октября, пт
пт700:00−2в2374100 0.0 102764
03:00−2в2272100 0.0 102682
06:00−2вюв1274100 0.0 102647
09:00−1вюв1163100 0.0 1026271
12:00+4юв11395 0.0 10231105
15:00+6всв223011 0.0 10201947
18:00+6в223485 0.0 1021557
21:00+2св22499 0.0 102413
8 октября, сб
сб800:000св115566 0.0 102510
03:000с005679 0.0 102510
06:00−1юз11560 0.0 102610
09:00+2юз12420 0.0 1026248
12:00+6юз12290 0.0 10231157
15:00+8ююз122010 0.0 10202239
18:00+7ссв233119 0.0 1021398
21:00+3ссв225032 0.0 102525